Weather History for Eagle River, WI

Change the Weather History Date:

Friday, November 30, 2012

  Actual Average Record
Temperature  
Mean Temperature 26 °F -  
Max Temperature 30 °F 33 °F 55 °F (1998)
Min Temperature 23 °F 18 °F 0 °F (2007)
Degree Days  
Heating Degree Days 38    
Moisture  
Dew Point 24 °F    
Average Humidity 92    
Maximum Humidity 100    
Minimum Humidity 63    
Precipitation  
Precipitation 0.00 in - - ()
Sea Level Pressure  
Sea Level Pressure 30.19 in    
Wind  
Wind Speed 8 mph (ESE)    
Max Wind Speed 13 mph    
Max Gust Speed -    
Visibility 8 miles    
Events      
Averages and records for this station are not official NWS values.
T = Trace of Precipitation, MM = Missing Value Source: NWS Daily Summary

Daily Weather History Graph

Daily Weather History Graph

Search for Another Location

Airport:

Trip Planner

Search our weather history database for the weather conditions in past years. The results will help you decide how hot, cold, wet, or windy it might be!

Date:

Astronomy

Nov. 30, 2012 Rise Set
Actual Time 7:17 AM CST 4:13 PM CST
Civil Twilight 6:43 AM CST 4:47 PM CST
Nautical Twilight 6:06 AM CST 5:25 PM CST
Astronomical Twilight 5:30 AM CST 6:00 PM CST
Moon 6:09 PM CST (11/30) 8:49 AM CST (11/30)
Length of Visible Light 10h 03m
Length of Day
8h 56m
Waning Gibbous, 96% of the Moon is Illuminated
Nov 30
Waning Gibbous
Dec 6
Last Quarter
Dec 13
New
Dec 19
First Quarter
Dec 28
Full

Hourly Weather History & Observations

Time (CST) Temp. Windchill Dew Point Humidity Pressure Visibility Wind Dir Wind Speed Gust Speed Precip Events Conditions
12:15 AM 23.0 °F 12.4 °F 23.0 °F 100% 30.20 in 10.0 mi East 10.4 mph - N/A   Overcast
12:35 AM 23.0 °F 13.9 °F 23.0 °F 100% 30.20 in 10.0 mi East 8.1 mph - N/A   Overcast
12:55 AM 23.0 °F 12.4 °F 23.0 °F 100% 30.20 in 10.0 mi ESE 10.4 mph - N/A   Overcast
1:15 AM 23.0 °F 13.9 °F 23.0 °F 100% 30.19 in 10.0 mi East 8.1 mph - N/A   Overcast
1:35 AM 23.0 °F 13.1 °F 23.0 °F 100% 30.20 in 10.0 mi East 9.2 mph - N/A   Overcast
1:55 AM 23.0 °F 13.1 °F 23.0 °F 100% 30.20 in 10.0 mi East 9.2 mph - N/A   Overcast
2:15 AM 23.0 °F 13.9 °F 21.2 °F 93% 30.20 in 10.0 mi East 8.1 mph - N/A   Overcast
2:35 AM 23.0 °F 12.4 °F 21.2 °F 93% 30.19 in 10.0 mi East 10.4 mph - N/A   Overcast
2:55 AM 23.0 °F 13.1 °F 21.2 °F 93% 30.20 in 10.0 mi ESE 9.2 mph - N/A   Overcast
3:15 AM 23.0 °F 13.1 °F 21.2 °F 93% 30.19 in 10.0 mi East 9.2 mph - N/A   Overcast
3:35 AM 23.0 °F 11.7 °F 21.2 °F 93% 30.18 in 10.0 mi East 11.5 mph - N/A   Overcast
3:55 AM 23.0 °F 14.7 °F 21.2 °F 93% 30.18 in 10.0 mi East 6.9 mph - N/A   Overcast
4:15 AM 23.0 °F 12.4 °F 21.2 °F 93% 30.18 in 10.0 mi East 10.4 mph - N/A   Overcast
4:35 AM 23.0 °F 14.7 °F 19.4 °F 86% 30.19 in 10.0 mi East 6.9 mph - N/A   Overcast
4:55 AM 23.0 °F 13.1 °F 19.4 °F 86% 30.20 in 10.0 mi East 9.2 mph - N/A   Overcast
5:15 AM 23.0 °F 12.4 °F 17.6 °F 80% 30.20 in 10.0 mi East 10.4 mph - N/A   Overcast
5:35 AM 23.0 °F 13.1 °F 17.6 °F 80% 30.20 in 10.0 mi East 9.2 mph - N/A   Overcast
5:55 AM 23.0 °F 11.1 °F 17.6 °F 80% 30.20 in 10.0 mi East 12.7 mph - N/A   Overcast
6:15 AM 23.0 °F 12.4 °F 15.8 °F 74% 30.20 in 10.0 mi East 10.4 mph - N/A   Overcast
6:35 AM 23.0 °F 11.1 °F 15.8 °F 74% 30.20 in 10.0 mi East 12.7 mph - N/A   Overcast
6:55 AM 23.0 °F 13.1 °F 14.0 °F 68% 30.20 in 10.0 mi East 9.2 mph - N/A   Overcast
7:15 AM 23.0 °F 14.7 °F 14.0 °F 68% 30.21 in 10.0 mi East 6.9 mph - N/A   Overcast
7:35 AM 23.0 °F 14.7 °F 14.0 °F 68% 30.21 in 10.0 mi East 6.9 mph - N/A   Overcast
7:55 AM 23.0 °F 15.8 °F 12.2 °F 63% 30.21 in 10.0 mi East 5.8 mph - N/A   Overcast
8:15 AM 23.0 °F 14.7 °F 12.2 °F 63% 30.22 in 10.0 mi ENE 6.9 mph - N/A   Overcast
8:35 AM 23.0 °F 14.7 °F 14.0 °F 68% 30.21 in 10.0 mi East 6.9 mph - N/A   Overcast
8:55 AM 23.0 °F 15.8 °F 15.8 °F 74% 30.22 in 10.0 mi ENE 5.8 mph - N/A   Overcast
9:15 AM 23.0 °F 14.7 °F 17.6 °F 80% 30.22 in 10.0 mi East 6.9 mph - N/A   Overcast
9:35 AM 23.0 °F 14.7 °F 17.6 °F 80% 30.22 in 10.0 mi ESE 6.9 mph - N/A   Overcast
9:55 AM 23.0 °F 14.7 °F 19.4 °F 86% 30.21 in 10.0 mi East 6.9 mph - N/A   Overcast
10:15 AM 24.8 °F 16.1 °F 19.4 °F 80% 30.22 in 10.0 mi ESE 8.1 mph - N/A   Overcast
10:35 AM 24.8 °F 16.9 °F 21.2 °F 86% 30.22 in 10.0 mi ESE 6.9 mph - N/A   Overcast
10:55 AM 24.8 °F 16.1 °F 23.0 °F 93% 30.22 in 10.0 mi ESE 8.1 mph - N/A   Overcast
11:15 AM 26.6 °F 17.5 °F 24.8 °F 93% 30.21 in 7.0 mi East 9.2 mph - N/A   Overcast
11:35 AM 26.6 °F 17.5 °F 24.8 °F 93% 30.20 in 7.0 mi ESE 9.2 mph - N/A   Overcast
11:55 AM 26.6 °F 20.0 °F 26.6 °F 100% 30.19 in 7.0 mi East 5.8 mph - N/A   Overcast
12:15 PM 26.6 °F 19.1 °F 26.6 °F 100% 30.20 in 7.0 mi ESE 6.9 mph - N/A   Overcast
12:35 PM 26.6 °F 18.2 °F 26.6 °F 100% 30.18 in 10.0 mi East 8.1 mph - N/A   Overcast
12:55 PM 28.4 °F 21.2 °F 26.6 °F 93% 30.17 in 10.0 mi ESE 6.9 mph - N/A   Overcast
1:15 PM 28.4 °F 19.7 °F 26.6 °F 93% 30.18 in 10.0 mi East 9.2 mph - N/A   Overcast
1:35 PM 28.4 °F 23.3 °F 26.6 °F 93% 30.20 in 10.0 mi ESE 4.6 mph - N/A   Overcast
1:55 PM 28.4 °F 21.2 °F 26.6 °F 93% 30.19 in 10.0 mi East 6.9 mph - N/A   Overcast
2:15 PM 28.4 °F 22.2 °F 26.6 °F 93% 30.18 in 10.0 mi ESE 5.8 mph - N/A   Overcast
2:35 PM 28.4 °F 19.7 °F 26.6 °F 93% 30.17 in 10.0 mi ESE 9.2 mph - N/A   Overcast
2:55 PM 28.4 °F 20.4 °F 26.6 °F 93% 30.16 in 10.0 mi ESE 8.1 mph - N/A   Overcast
3:15 PM 28.4 °F 20.4 °F 26.6 °F 93% 30.17 in 10.0 mi ESE 8.1 mph - N/A   Overcast
3:35 PM 28.4 °F 22.2 °F 28.4 °F 100% 30.20 in 10.0 mi SE 5.8 mph - N/A   Overcast
3:55 PM 28.4 °F 22.2 °F 28.4 °F 100% 30.21 in 10.0 mi SE 5.8 mph - N/A   Overcast
4:15 PM 28.4 °F 20.4 °F 28.4 °F 100% 30.20 in 10.0 mi SE 8.1 mph - N/A   Overcast
4:35 PM 28.4 °F 21.2 °F 28.4 °F 100% 30.20 in 5.0 mi SE 6.9 mph - N/A   Overcast
4:55 PM 28.4 °F 21.2 °F 28.4 °F 100% 30.19 in 4.0 mi ESE 6.9 mph - N/A   Overcast
5:15 PM 28.4 °F 21.2 °F 28.4 °F 100% 30.18 in 2.5 mi SE 6.9 mph - N/A   Overcast
5:35 PM 28.4 °F 23.3 °F 28.4 °F 100% 30.19 in 1.8 mi SE 4.6 mph - N/A   Overcast
5:55 PM 28.4 °F 21.2 °F 28.4 °F 100% 30.17 in 1.2 mi SE 6.9 mph - N/A   Overcast
6:15 PM 28.4 °F 22.2 °F 28.4 °F 100% 30.16 in 1.5 mi SE 5.8 mph - N/A   Overcast
6:35 PM 28.4 °F 23.3 °F 28.4 °F 100% 30.16 in 1.2 mi SSE 4.6 mph - N/A   Overcast
6:55 PM 28.4 °F 21.2 °F 28.4 °F 100% 30.15 in 1.5 mi SSE 6.9 mph - N/A   Overcast
7:15 PM 28.4 °F 21.2 °F 28.4 °F 100% 30.14 in 1.5 mi SE 6.9 mph - N/A   Overcast
7:35 PM 28.4 °F 21.2 °F 28.4 °F 100% 30.14 in 3.0 mi ESE 6.9 mph - N/A   Overcast
7:55 PM 28.4 °F 24.6 °F 28.4 °F 100% 30.15 in 4.0 mi SE 3.5 mph - N/A   Overcast
8:15 PM 28.4 °F 24.6 °F 28.4 °F 100% 30.16 in 5.0 mi SE 3.5 mph - N/A   Overcast
8:35 PM 28.4 °F 23.3 °F 28.4 °F 100% 30.15 in 5.0 mi ESE 4.6 mph - N/A   Overcast
9:15 PM 30.2 °F 23.4 °F 30.2 °F 100% 30.16 in 4.0 mi ESE 6.9 mph - N/A   Overcast
9:35 PM 30.2 °F 23.4 °F 30.2 °F 100% 30.15 in 3.0 mi SE 6.9 mph - N/A   Overcast
10:15 PM 30.2 °F 24.3 °F 30.2 °F 100% 30.15 in 1.2 mi SE 5.8 mph - N/A   Overcast
10:35 PM 30.2 °F 25.4 °F 30.2 °F 100% 30.15 in 1.0 mi SE 4.6 mph - N/A   Overcast
10:55 PM 30.2 °F 25.4 °F 30.2 °F 100% 30.15 in 1.0 mi SE 4.6 mph - N/A   Overcast
11:15 PM 30.2 °F 24.3 °F 30.2 °F 100% 30.15 in 1.0 mi SSE 5.8 mph - N/A   Overcast
11:35 PM 30.2 °F 24.3 °F 30.2 °F 100% 30.14 in 0.8 mi SSE 5.8 mph - N/A   Overcast
11:55 PM 30.2 °F 23.4 °F 30.2 °F 100% 30.13 in 0.8 mi SSE 6.9 mph - N/A   Overcast